Tracking 23114 objects as of 16-May-2021
HD Live streaming from Space Station
objects crossing your sky now

STARLINK-2463

Track STARLINK-2463 now!
10-day predictions
STARLINK-2463 is classified as:


NORAD ID: 48122
Int'l Code: 2021-027AG
Perigee: 354.4 km
Apogee: 358.9 km
Inclination: 53.0 °
Period: 91.5 minutes
Semi major axis: 6727 km
RCS: Unknown
Launch date: April 7, 2021
Source: United States (US)
Launch site: AIR FORCE EASTERN TEST RANGE (AFETR)
aabbcc
Your satellite tracking list
Your tracking list is empty




NASA's NSSDC Master Catalog

Two Line Element Set (TLE):
1 48122U 21027AG  21136.58334491 -.00033420  00000-0 -23373-3 0  9994
2 48122  53.0470 147.0447 0003349  14.9020 164.4208 15.73275878  1829
Source of the keplerian elements: AFSPC